Bellaire, MI

9:50 AM EDT on August 29, 2016 (GMT -0400)
Antrim County

Weather History for KACB - December, 2013

Change the Weather History Date:

Friday, December 13, 2013

  Actual Average (KTVC) Record (KTVC)
Temperature  
Mean Temperature 14 °F 27 °F  
Max Temperature 21 °F 33 °F 60 °F (2015)
Min Temperature 8 °F 22 °F -4 °F (1937)
Degree Days  
Heating Degree Days 50 38  
Month to date heating degree days 465  
Since 1 July heating degree days 2084  
Moisture  
Dew Point 5 °F    
Average Humidity 63    
Maximum Humidity 74    
Minimum Humidity 53    
Precipitation  
Precipitation 0.00 in 0.08 in 0.52 in (2015)
Month to date precipitation 1.05  
Year to date precipitation 31.61  
Sea Level Pressure  
Sea Level Pressure 30.22 in    
Wind  
Wind Speed 7 mph (North)    
Max Wind Speed 14 mph    
Max Gust Speed 23 mph    
Visibility 10 miles    
Events Snow    
T = Trace of Precipitation, MM = Missing Value Source: NWS Daily Summary

Daily Weather History Graph

Daily Weather History Graph

Search for Another Location

Airport or City:

Trip Planner

Search our weather history database for the weather conditions in past years. The results will help you decide how hot, cold, wet, or windy it might be!

Date:

Astronomy

Dec. 13, 2013 Rise Set
Actual Time 8:10 AM EST 4:59 PM EST
Civil Twilight 7:37 AM EST 5:33 PM EST
Nautical Twilight 6:59 AM EST 6:10 PM EST
Astronomical Twilight 6:24 AM EST 6:46 PM EST
Moon 2:48 PM EST (12/13) 4:25 AM EST (12/13)
Length of Visible Light 9h 56m
Length of Day
8h 48m
Waxing Gibbous, 88% of the Moon is Illuminated
Dec 13
Waxing Gibbous
Dec 17
Full
Dec 25
Last Quarter
Jan 1
New
Jan 7
First Quarter

Hourly Weather History & Observations

Time (EST) Temp. Windchill Dew Point Humidity Pressure Visibility Wind Dir Wind Speed Gust Speed Precip Events Conditions
12:14 AM 21.6 °F 11.3 °F 9.1 °F 59% 30.04 in 10.0 mi West 9.2 mph - N/A   Overcast
12:34 AM 21.6 °F 11.3 °F 10.2 °F 62% 30.04 in 10.0 mi West 9.2 mph 16.1 mph N/A   Overcast
12:55 AM 21.6 °F 14.0 °F 10.4 °F 62% 30.04 in 10.0 mi West 5.8 mph - N/A   Overcast
1:14 AM 21.6 °F 16.8 °F 11.3 °F 65% 30.04 in 10.0 mi WSW 3.5 mph - N/A   Overcast
1:34 AM 21.9 °F 11.0 °F 11.3 °F 64% 30.06 in 10.0 mi West 10.4 mph 17.3 mph N/A   Overcast
1:55 AM 21.9 °F 11.0 °F 12.2 °F 66% 30.05 in 10.0 mi West 10.4 mph 19.6 mph N/A Snow Light Snow
2:14 AM 21.9 °F 13.4 °F 12.7 °F 68% 30.06 in 10.0 mi WNW 6.9 mph - N/A Snow Light Snow
2:34 AM 21.7 °F 13.2 °F 10.9 °F 63% 30.06 in 10.0 mi WNW 6.9 mph 18.4 mph N/A   Overcast
2:55 AM 21.6 °F 11.3 °F 10.8 °F 63% 30.07 in 10.0 mi WNW 9.2 mph 19.6 mph N/A   Overcast
3:14 AM 21.2 °F 11.7 °F 10.4 °F 63% 30.07 in 10.0 mi WNW 8.1 mph 23.0 mph N/A   Overcast
3:34 AM 21.0 °F 11.4 °F 10.4 °F 64% 30.07 in 10.0 mi WNW 8.1 mph - N/A   Overcast
3:54 AM 21.0 °F 9.9 °F 9.3 °F 61% 30.08 in 10.0 mi NW 10.4 mph 16.1 mph N/A   Overcast
4:14 AM 20.8 °F 12.1 °F 10.0 °F 63% 30.08 in 10.0 mi NW 6.9 mph 17.3 mph N/A   Overcast
4:34 AM 20.7 °F 11.9 °F 10.4 °F 65% 30.08 in 10.0 mi NW 6.9 mph 16.1 mph N/A   Overcast
4:54 AM 20.5 °F 10.0 °F 9.9 °F 64% 30.08 in 10.0 mi NW 9.2 mph - N/A   Overcast
5:14 AM 20.1 °F 9.5 °F 10.6 °F 67% 30.09 in 10.0 mi NNW 9.2 mph 21.9 mph N/A   Overcast
5:34 AM 19.8 °F 7.7 °F 9.3 °F 64% 30.10 in 10.0 mi NNW 11.5 mph 18.4 mph N/A   Overcast
5:54 AM 19.4 °F 9.5 °F 8.4 °F 62% 30.11 in 10.0 mi NNW 8.1 mph 18.4 mph N/A   Overcast
6:14 AM 19.0 °F 10.0 °F 8.2 °F 63% 30.12 in 10.0 mi NNW 6.9 mph - N/A   Overcast
6:34 AM 18.5 °F 9.3 °F 8.1 °F 64% 30.13 in 10.0 mi NNW 6.9 mph - N/A   Overcast
6:54 AM 18.5 °F 11.7 °F 7.7 °F 63% 30.13 in 10.0 mi North 4.6 mph - N/A   Overcast
7:14 AM 18.1 °F 11.3 °F 7.5 °F 63% 30.14 in 10.0 mi NNW 4.6 mph - N/A   Overcast
7:34 AM 17.2 °F 11.9 °F 9.9 °F 73% 30.16 in 10.0 mi NNW 3.5 mph - N/A   Overcast
7:54 AM 17.1 °F 10.0 °F 9.1 °F 71% 30.17 in 10.0 mi North 4.6 mph - N/A   Overcast
8:14 AM 16.7 °F 9.6 °F 7.7 °F 68% 30.17 in 10.0 mi North 4.6 mph - N/A   Overcast
8:34 AM 16.7 °F 7.2 °F 6.3 °F 64% 30.17 in 10.0 mi North 6.9 mph - N/A   Overcast
8:54 AM 16.5 °F 9.4 °F 6.1 °F 64% 30.18 in 10.0 mi North 4.6 mph - N/A   Overcast
9:14 AM 16.3 °F 7.8 °F 5.9 °F 64% 30.18 in 10.0 mi North 5.8 mph - N/A   Overcast
9:35 AM 16.5 °F 9.4 °F 5.7 °F 63% 30.20 in 10.0 mi NNW 4.6 mph - N/A   Overcast
9:54 AM 16.0 °F 2.3 °F 6.6 °F 67% 30.21 in 10.0 mi NNE 12.7 mph - N/A   Overcast
10:14 AM 13.6 °F -1.3 °F 6.8 °F 74% 30.22 in 10.0 mi NNE 13.8 mph - N/A   Overcast
10:35 AM 13.1 °F 1.8 °F 5.9 °F 73% 30.23 in 10.0 mi NNE 8.1 mph - N/A   Overcast
10:54 AM 13.6 °F 1.6 °F 5.9 °F 71% 30.23 in 10.0 mi NE 9.2 mph - N/A   Overcast
11:14 AM 14.0 °F 2.9 °F 5.7 °F 70% 30.24 in 10.0 mi NE 8.1 mph - N/A   Overcast
11:35 AM 14.9 °F 5.0 °F 5.5 °F 66% 30.24 in 10.0 mi ENE 6.9 mph - N/A   Overcast
11:54 AM 14.9 °F 6.1 °F 5.4 °F 66% 30.23 in 10.0 mi ENE 5.8 mph - N/A   Overcast
12:14 PM 14.9 °F 6.1 °F 4.6 °F 64% 30.23 in 10.0 mi East 5.8 mph - N/A   Overcast
12:35 PM 14.7 °F 5.9 °F 3.7 °F 62% 30.23 in 10.0 mi ENE 5.8 mph - N/A   Overcast
12:54 PM 14.9 °F 5.0 °F 3.0 °F 59% 30.23 in 10.0 mi ENE 6.9 mph - N/A   Overcast
1:14 PM 15.4 °F 6.8 °F 2.7 °F 57% 30.23 in 10.0 mi East 5.8 mph - N/A   Overcast
1:35 PM 16.5 °F 8.1 °F 2.5 °F 54% 30.24 in 10.0 mi East 5.8 mph - N/A   Overcast
1:54 PM 16.7 °F 7.2 °F 2.8 °F 55% 30.23 in 10.0 mi NE 6.9 mph - N/A   Mostly Cloudy
2:14 PM 17.2 °F 6.0 °F 2.7 °F 53% 30.24 in 10.0 mi NNE 9.2 mph - N/A   Mostly Cloudy
2:34 PM 16.3 °F 3.4 °F 2.5 °F 55% 30.24 in 10.0 mi NE 11.5 mph - N/A   Mostly Cloudy
2:54 PM 16.2 °F 5.5 °F 1.9 °F 54% 30.24 in 10.0 mi NE 8.1 mph - N/A   Mostly Cloudy
3:14 PM 15.4 °F 3.8 °F 2.3 °F 56% 30.25 in 10.0 mi NNE 9.2 mph - N/A   Mostly Cloudy
3:34 PM 15.4 °F 4.6 °F 2.3 °F 56% 30.26 in 10.0 mi NNE 8.1 mph - N/A   Overcast
3:54 PM 14.9 °F 3.1 °F 1.9 °F 57% 30.27 in 10.0 mi NNE 9.2 mph - N/A   Overcast
4:14 PM 14.0 °F 2.9 °F 2.1 °F 59% 30.28 in 10.0 mi NE 8.1 mph - N/A   Overcast
4:34 PM 14.0 °F 3.9 °F 1.9 °F 59% 30.28 in 10.0 mi NE 6.9 mph - N/A   Overcast
4:54 PM 13.6 °F 2.5 °F 0.5 °F 56% 30.29 in 10.0 mi NNE 8.1 mph - N/A   Overcast
5:14 PM 13.1 °F 5.4 °F -0.0 °F 56% 30.30 in 10.0 mi North 4.6 mph - N/A   Overcast
5:34 PM 12.2 °F 4.3 °F -0.6 °F 57% 30.30 in 10.0 mi NNE 4.6 mph - N/A   Overcast
5:54 PM 11.7 °F 3.7 °F -0.9 °F 57% 30.31 in 10.0 mi NNE 4.6 mph - N/A   Mostly Cloudy
6:14 PM 10.4 °F 2.2 °F -0.8 °F 61% 30.31 in 10.0 mi NE 4.6 mph - N/A   Mostly Cloudy
6:34 PM 10.4 °F 2.2 °F -0.4 °F 62% 30.32 in 10.0 mi North 4.6 mph - N/A   Scattered Clouds
6:54 PM 10.8 °F 1.2 °F 0.5 °F 63% 30.33 in 10.0 mi NNE 5.8 mph - N/A   Clear
7:14 PM 10.2 °F 0.6 °F 1.2 °F 67% 30.33 in 10.0 mi NNE 5.8 mph - N/A   Scattered Clouds
7:35 PM 9.5 °F 1.2 °F 1.4 °F 70% 30.34 in 10.0 mi NE 4.6 mph - N/A   Mostly Cloudy
7:54 PM 9.3 °F 2.8 °F 1.6 °F 71% 30.34 in 10.0 mi NNE 3.5 mph - N/A   Overcast
8:14 PM 8.6 °F 0.1 °F 1.4 °F 73% 30.35 in 10.0 mi NNE 4.6 mph - N/A   Mostly Cloudy
8:34 PM 8.6 °F 0.1 °F 1.0 °F 71% 30.36 in 10.0 mi NNE 4.6 mph - N/A   Scattered Clouds
8:54 PM 8.4 °F 1.8 °F -0.4 °F 67% 30.36 in 10.0 mi NNE 3.5 mph - N/A   Clear
9:14 PM 8.4 °F -1.6 °F -1.3 °F 65% 30.36 in 10.0 mi NNE 5.8 mph - N/A   Scattered Clouds
9:34 PM 8.4 °F 1.8 °F -1.3 °F 65% 30.37 in 10.0 mi NE 3.5 mph - N/A   Overcast
9:54 PM 8.6 °F 0.1 °F -1.8 °F 63% 30.37 in 10.0 mi NE 4.6 mph - N/A   Overcast
10:14 PM 8.6 °F 2.0 °F -1.5 °F 64% 30.37 in 10.0 mi NE 3.5 mph - N/A   Overcast
10:34 PM 8.6 °F 2.0 °F -1.3 °F 64% 30.37 in 10.0 mi NE 3.5 mph - N/A   Overcast
10:54 PM 8.6 °F -1.3 °F -1.1 °F 65% 30.37 in 10.0 mi NE 5.8 mph - N/A   Overcast
11:14 PM 8.6 °F -1.3 °F -0.6 °F 66% 30.37 in 10.0 mi NE 5.8 mph - N/A   Overcast
11:34 PM 8.6 °F -2.6 °F -0.4 °F 67% 30.38 in 10.0 mi NE 6.9 mph - N/A   Overcast
11:54 PM 8.6 °F -2.6 °F 0.1 °F 68% 30.38 in 10.0 mi NE 6.9 mph - N/A   Overcast